| time (UTC) | temp F | wind direction | speed knots | gust knots | rain 1hr in | rain 24hr in | rain mn in | humidity % | barometer mb |
| 20260902132910 | 51 | 138 | 1.7 | 3.5 | 0.00 | 0.00 | 0.00 | 80 | 1007.8 |
| 20260902132403 | 51 | 144 | 0.9 | 3.5 | 0.00 | 0.00 | 0.00 | 81 | 1007.5 |
| 20260902131908 | 51 | 146 | 0.9 | 2.6 | 0.00 | 0.00 | 0.00 | 80 | 1007.8 |
| 20260902130844 | 51 | 149 | 0.0 | 2.6 | 0.00 | 0.00 | 0.00 | 80 | 1007.9 |
| 20260902130339 | 51 | 148 | 0.9 | 2.6 | 0.00 | 0.00 | 0.00 | 80 | 1007.9 |
| 20260902125833 | 51 | 148 | 0.9 | 2.6 | 0.00 | 0.00 | 0.00 | 79 | 1008.0 |
| 20260902125327 | 51 | 149 | 0.9 | 3.5 | 0.00 | 0.00 | 0.00 | 79 | 1008.1 |
| 20260902124821 | 51 | 150 | 0.9 | 3.5 | 0.00 | 0.00 | 0.00 | 79 | 1008.1 |
| 20260902124315 | 52 | 157 | 0.9 | 2.6 | 0.00 | 0.00 | 0.00 | 79 | 1008.1 |
| 20260902123809 | 52 | 157 | 0.9 | 2.6 | 0.00 | 0.00 | 0.00 | 79 | 1008.1 |
| 20260902123306 | 52 | 157 | 0.0 | 1.7 | 0.00 | 0.00 | 0.00 | 79 | 1008.1 |
| 20260902122758 | 52 | 157 | 0.0 | 0.0 | 0.00 | 0.00 | 0.00 | 80 | 1008.2 |
| 20260902122252 | 51 | 157 | 0.0 | 0.0 | 0.00 | 0.00 | 0.00 | 80 | 1008.1 |
| 20260902121745 | 51 | 157 | 0.0 | 0.9 | 0.00 | 0.00 | 0.00 | 80 | 1008.1 |
| 20260902121240 | 51 | 157 | 0.0 | 0.9 | 0.00 | 0.00 | 0.00 | 80 | 1008.2 |
| 20260902120740 | 51 | 158 | 0.0 | 0.9 | 0.00 | 0.00 | 0.00 | 80 | 1008.2 |
| 20260902120240 | 51 | 158 | 0.0 | 0.9 | 0.00 | 0.00 | 0.00 | 81 | 1008.2 |
| 20260902115740 | 51 | 158 | 0.0 | 1.7 | 0.00 | 0.00 | 0.00 | 81 | 1008.4 |
| 20260902115246 | 51 | 158 | 0.0 | 1.7 | 0.00 | 0.00 | 0.00 | 81 | 1008.5 |
| 20260902114736 | 50 | 158 | 0.0 | 2.6 | 0.00 | 0.00 | 0.00 | 82 | 1008.5 |
| 20260902114235 | 50 | 153 | 0.0 | 2.6 | 0.00 | 0.00 | 0.00 | 82 | 1008.5 |
| 20260902113735 | 50 | 153 | 0.0 | 1.7 | 0.00 | 0.00 | 0.00 | 82 | 1008.5 |
| 20260902113235 | 50 | 147 | 0.0 | 1.7 | 0.00 | 0.00 | 0.00 | 81 | 1008.5 |
| 20260902112735 | 50 | 146 | 0.9 | 1.7 | 0.00 | 0.00 | 0.00 | 81 | 1008.4 |
| 20260902112237 | 50 | 146 | 0.9 | 1.7 | 0.00 | 0.00 | 0.00 | 81 | 1008.3 |
| 20260902111736 | 50 | 142 | 0.9 | 2.6 | 0.00 | 0.00 | 0.00 | 80 | 1008.3 |
| 20260902111236 | 50 | 142 | 1.7 | 3.5 | 0.00 | 0.00 | 0.00 | 80 | 1008.4 |
| 20260902110734 | 51 | 142 | 1.7 | 4.3 | 0.00 | 0.00 | 0.00 | 79 | 1008.4 |
| 20260902110236 | 51 | 141 | 0.9 | 4.3 | 0.00 | 0.00 | 0.00 | 80 | 1008.4 |
| 20260902105744 | 51 | 144 | 0.9 | 2.6 | 0.00 | 0.00 | 0.00 | 80 | 1008.5 |
| 20260902105520 | 51 | 146 | 0.9 | 4.3 | 0.00 | 0.00 | 0.00 | 79 | 1008.5 |
| 20260902104741 | 51 | 143 | 0.9 | 4.3 | 0.00 | 0.00 | 0.00 | 78 | 1008.5 |
| 20260902104243 | 51 | 161 | 0.9 | 3.5 | 0.00 | 0.00 | 0.00 | 78 | 1008.7 |
| 20260902103733 | 51 | 174 | 0.9 | 3.5 | 0.00 | 0.00 | 0.00 | 77 | 1008.6 |
| 20260902103503 | 52 | 176 | 0.9 | 3.5 | 0.00 | 0.00 | 0.00 | 76 | 1008.6 |
| 20260902102726 | 52 | 152 | 1.7 | 4.3 | 0.00 | 0.00 | 0.00 | 76 | 1008.6 |
| 20260902102225 | 52 | 188 | 1.7 | 4.3 | 0.00 | 0.00 | 0.00 | 77 | 1008.7 |
| 20260902101725 | 52 | 198 | 2.6 | 5.2 | 0.00 | 0.00 | 0.00 | 77 | 1008.6 |
| 20260902101224 | 52 | 214 | 2.6 | 5.2 | 0.00 | 0.00 | 0.00 | 78 | 1008.6 |
| 20260902100725 | 52 | 213 | 2.6 | 4.3 | 0.00 | 0.00 | 0.00 | 78 | 1008.6 |
| 20260902100225 | 51 | 205 | 2.6 | 5.2 | 0.00 | 0.00 | 0.00 | 78 | 1008.6 |
| 20260902095725 | 51 | 196 | 0.9 | 5.2 | 0.00 | 0.00 | 0.00 | 78 | 1008.5 |
| 20260902095227 | 52 | 229 | 0.9 | 3.5 | 0.00 | 0.00 | 0.00 | 78 | 1008.4 |
| 20260902094725 | 52 | 250 | 0.9 | 2.6 | 0.00 | 0.00 | 0.00 | 78 | 1008.5 |
| 20260902094221 | 52 | 254 | 1.7 | 2.6 | 0.00 | 0.00 | 0.00 | 78 | 1008.4 |
| 20260902093720 | 52 | 257 | 0.9 | 2.6 | 0.00 | 0.00 | 0.00 | 78 | 1008.4 |
| 20260902093221 | 52 | 252 | 0.9 | 2.6 | 0.00 | 0.00 | 0.00 | 78 | 1008.4 |
| 20260902092952 | 52 | 254 | 1.7 | 3.5 | 0.00 | 0.00 | 0.00 | 78 | 1008.6 |
| 20260902092221 | 52 | 256 | 1.7 | 3.5 | 0.00 | 0.00 | 0.00 | 78 | 1008.6 |
| 20260902091721 | 52 | 262 | 0.9 | 3.5 | 0.00 | 0.00 | 0.00 | 77 | 1008.6 |
| 20260902091221 | 52 | 260 | 0.9 | 3.5 | 0.00 | 0.00 | 0.00 | 77 | 1008.7 |
| 20260902090721 | 53 | 264 | 0.0 | 2.6 | 0.00 | 0.00 | 0.00 | 77 | 1008.9 |
| 20260902090447 | 53 | 280 | 0.0 | 1.7 | 0.00 | 0.00 | 0.00 | 76 | 1009.0 |
| 20260902085714 | 53 | 280 | 0.0 | 1.7 | 0.00 | 0.00 | 0.00 | 76 | 1009.1 |
| 20260902085209 | 53 | 282 | 0.0 | 1.7 | 0.00 | 0.00 | 0.00 | 76 | 1009.1 |
| 20260902084937 | 53 | 282 | 0.0 | 2.6 | 0.00 | 0.00 | 0.00 | 76 | 1009.0 |
| 20260902084156 | 53 | 284 | 0.0 | 2.6 | 0.00 | 0.00 | 0.00 | 76 | 1009.0 |
| 20260902083650 | 53 | 298 | 0.0 | 1.7 | 0.00 | 0.00 | 0.00 | 75 | 1008.9 |
| 20260902083414 | 53 | 298 | 0.0 | 2.6 | 0.00 | 0.00 | 0.00 | 75 | 1008.7 |
| 20260902082920 | 53 | 279 | 0.0 | 1.7 | 0.00 | 0.00 | 0.00 | 75 | 1008.7 |
| 20260902082915 | 53 | 298 | 0.0 | 2.6 | 0.00 | 0.00 | 0.00 | 76 | 1008.9 |
| 20260902081856 | 53 | 279 | 0.0 | 2.6 | 0.00 | 0.00 | 0.00 | 76 | 1008.6 |
| 20260902081119 | 53 | 280 | 0.0 | 2.6 | 0.00 | 0.00 | 0.00 | 75 | 1008.6 |
| 20260902080614 | 53 | 321 | 0.0 | 1.7 | 0.00 | 0.00 | 0.00 | 75 | 1008.6 |
| 20260902080108 | 54 | 326 | 0.0 | 0.0 | 0.00 | 0.00 | 0.00 | 74 | 1008.6 |
| 20260902075609 | 54 | 326 | 0.0 | 0.9 | 0.00 | 0.00 | 0.00 | 73 | 1008.5 |
| 20260902075057 | 55 | 326 | 0.0 | 1.7 | 0.00 | 0.00 | 0.00 | 73 | 1008.6 |
| 20260902074551 | 55 | 326 | 0.9 | 4.3 | 0.00 | 0.00 | 0.00 | 73 | 1008.5 |
| 20260902074044 | 55 | 326 | 1.7 | 6.1 | 0.00 | 0.00 | 0.00 | 73 | 1008.5 |
| 20260902073816 | 55 | 336 | 2.6 | 7.8 | 0.00 | 0.00 | 0.00 | 73 | 1008.4 |
| 20260902073032 | 55 | 320 | 3.5 | 7.8 | 0.00 | 0.00 | 0.00 | 73 | 1008.4 |
| 20260902072531 | 55 | 307 | 3.5 | 7.0 | 0.00 | 0.00 | 0.00 | 72 | 1008.4 |
| 20260902072031 | 56 | 331 | 3.5 | 7.0 | 0.00 | 0.00 | 0.00 | 72 | 1008.4 |
| 20260902071811 | 56 | 299 | 3.5 | 8.7 | 0.00 | 0.00 | 0.00 | 72 | 1008.4 |
| 20260902071029 | 56 | 296 | 4.3 | 8.7 | 0.00 | 0.00 | 0.00 | 72 | 1008.5 |
| 20260902070529 | 56 | 306 | 3.5 | 8.7 | 0.00 | 0.00 | 0.00 | 72 | 1008.5 |
| 20260902070028 | 56 | 323 | 3.5 | 7.0 | 0.00 | 0.00 | 0.00 | 72 | 1008.5 |
| 20260902065537 | 56 | 265 | 3.5 | 7.8 | 0.00 | 0.00 | 0.00 | 71 | 1008.6 |
| 20260902065300 | 56 | 264 | 3.5 | 7.8 | 0.00 | 0.00 | 0.00 | 71 | 1008.6 |
| 20260902064527 | 56 | 258 | 3.5 | 7.8 | 0.00 | 0.00 | 0.00 | 71 | 1008.6 |
| 20260902064257 | 56 | 300 | 3.5 | 9.6 | 0.00 | 0.00 | 0.00 | 71 | 1008.6 |
| 20260902063527 | 56 | 279 | 3.5 | 9.6 | 0.00 | 0.00 | 0.00 | 70 | 1008.7 |
| 20260902063029 | 57 | 250 | 4.3 | 8.7 | 0.00 | 0.00 | 0.00 | 70 | 1008.7 |
| 20260902062758 | 57 | 261 | 4.3 | 8.7 | 0.00 | 0.00 | 0.00 | 69 | 1008.7 |
| 20260902062027 | 57 | 288 | 3.5 | 8.7 | 0.00 | 0.00 | 0.00 | 69 | 1008.7 |
| 20260902061526 | 57 | 290 | 3.5 | 7.8 | 0.00 | 0.00 | 0.00 | 68 | 1008.7 |
| 20260902061026 | 57 | 294 | 3.5 | 7.8 | 0.00 | 0.00 | 0.00 | 68 | 1008.7 |
| 20260902060810 | 57 | 290 | 4.3 | 8.7 | 0.00 | 0.00 | 0.00 | 67 | 1008.7 |
| 20260902060035 | 58 | 285 | 3.5 | 8.7 | 0.00 | 0.00 | 0.00 | 67 | 1008.7 |
| 20260902055526 | 58 | 279 | 2.6 | 6.1 | 0.00 | 0.00 | 0.00 | 66 | 1008.9 |
| 20260902055023 | 58 | 296 | 3.5 | 7.0 | 0.00 | 0.00 | 0.00 | 66 | 1008.9 |
| 20260902054519 | 58 | 298 | 3.5 | 7.0 | 0.00 | 0.00 | 0.00 | 66 | 1009.0 |
| 20260902054011 | 58 | 274 | 4.3 | 10.4 | 0.00 | 0.00 | 0.00 | 65 | 1009.0 |
| 20260902053503 | 58 | 306 | 4.3 | 10.4 | 0.00 | 0.00 | 0.00 | 65 | 1008.9 |
| 20260902053001 | 58 | 294 | 3.5 | 7.8 | 0.00 | 0.00 | 0.00 | 64 | 1009.0 |
| 20260902052453 | 58 | 294 | 3.5 | 7.8 | 0.00 | 0.00 | 0.00 | 64 | 1008.9 |
| 20260902051948 | 58 | 293 | 3.5 | 7.8 | 0.00 | 0.00 | 0.00 | 63 | 1008.7 |
| 20260902051440 | 59 | 317 | 3.5 | 7.8 | 0.00 | 0.00 | 0.00 | 63 | 1008.7 |
| 20260902050934 | 59 | 327 | 3.5 | 7.8 | 0.00 | 0.00 | 0.00 | 63 | 1008.6 |
| 20260902050431 | 59 | 288 | 3.5 | 7.8 | 0.00 | 0.00 | 0.00 | 63 | 1008.6 |
| 20260902045922 | 59 | 277 | 2.6 | 7.0 | 0.00 | 0.00 | 0.00 | 62 | 1008.6 |
| 20260902045423 | 59 | 287 | 2.6 | 7.0 | 0.00 | 0.00 | 0.00 | 62 | 1008.6 |
| 20260902045153 | 59 | 293 | 1.7 | 6.1 | 0.00 | 0.00 | 0.00 | 62 | 1008.5 |
| 20260902044418 | 59 | 290 | 2.6 | 6.1 | 0.00 | 0.00 | 0.00 | 62 | 1008.5 |
| 20260902043928 | 59 | 314 | 2.6 | 8.7 | 0.00 | 0.00 | 0.00 | 61 | 1008.4 |
| 20260902043418 | 59 | 305 | 3.5 | 8.7 | 0.00 | 0.00 | 0.00 | 61 | 1008.4 |
| 20260902042918 | 59 | 296 | 3.5 | 7.8 | 0.00 | 0.00 | 0.00 | 62 | 1008.3 |
| 20260902042417 | 59 | 316 | 3.5 | 8.7 | 0.00 | 0.00 | 0.00 | 62 | 1008.3 |
| 20260902042150 | 59 | 294 | 3.5 | 8.7 | 0.00 | 0.00 | 0.00 | 62 | 1008.2 |
| 20260902041417 | 59 | 329 | 3.5 | 8.7 | 0.00 | 0.00 | 0.00 | 62 | 1008.2 |
| 20260902040918 | 60 | 331 | 4.3 | 9.6 | 0.00 | 0.00 | 0.00 | 62 | 1008.1 |
| 20260902040418 | 60 | 300 | 3.5 | 9.6 | 0.00 | 0.00 | 0.00 | 61 | 1008.0 |
| 20260902035918 | 60 | 279 | 4.3 | 8.7 | 0.00 | 0.00 | 0.00 | 61 | 1007.9 |
| 20260902035418 | 60 | 300 | 5.2 | 12.2 | 0.00 | 0.00 | 0.00 | 61 | 1007.8 |
| 20260902034916 | 60 | 283 | 4.3 | 12.2 | 0.00 | 0.00 | 0.00 | 61 | 1007.7 |
| 20260902034416 | 60 | 233 | 4.3 | 8.7 | 0.00 | 0.00 | 0.00 | 61 | 1007.7 |
| 20260902033916 | 60 | 284 | 5.2 | 10.4 | 0.00 | 0.00 | 0.00 | 61 | 1007.3 |
| 20260902033416 | 60 | 319 | 4.3 | 11.3 | 0.00 | 0.00 | 0.00 | 61 | 1007.5 |
| 20260902032916 | 61 | 244 | 3.5 | 11.3 | 0.00 | 0.00 | 0.00 | 61 | 1007.3 |
| 20260902032415 | 61 | 297 | 3.5 | 14.8 | 0.00 | 0.00 | 0.00 | 61 | 1007.3 |
| 20260902032204 | 61 | 348 | 6.1 | 14.8 | 0.00 | 0.00 | 0.00 | 60 | 1007.0 |
| 20260902032200 | 61 | 319 | 5.2 | 14.8 | 0.00 | 0.00 | 0.00 | 61 | 1007.2 |
| 20260902031157 | 62 | 277 | 6.1 | 14.8 | 0.00 | 0.00 | 0.00 | 60 | 1007.0 |
| 20260902030652 | 62 | 269 | 4.3 | 14.8 | 0.00 | 0.00 | 0.00 | 59 | 1006.8 |
| 20260902030154 | 62 | 332 | 6.1 | 14.8 | 0.00 | 0.00 | 0.00 | 58 | 1006.7 |
| 20260902025414 | 62 | 298 | 7.0 | 14.8 | 0.00 | 0.00 | 0.00 | 57 | 1006.7 |
| 20260902024916 | 63 | 275 | 6.1 | 13.9 | 0.00 | 0.00 | 0.00 | 57 | 1006.7 |
| 20260902024655 | 63 | 260 | 6.1 | 13.9 | 0.00 | 0.00 | 0.00 | 56 | 1006.6 |
| 20260902023922 | 63 | 286 | 7.0 | 13.9 | 0.00 | 0.00 | 0.00 | 55 | 1006.5 |
| 20260902023424 | 63 | 259 | 7.0 | 16.5 | 0.00 | 0.00 | 0.00 | 55 | 1006.4 |
| 20260902022922 | 64 | 303 | 6.1 | 16.5 | 0.00 | 0.00 | 0.00 | 54 | 1006.5 |
| 20260902022421 | 64 | 275 | 6.1 | 13.9 | 0.00 | 0.00 | 0.00 | 53 | 1006.4 |
| 20260902021917 | 64 | 304 | 7.0 | 14.8 | 0.00 | 0.00 | 0.00 | 52 | 1006.4 |
| 20260902021417 | 65 | 240 | 7.0 | 14.8 | 0.00 | 0.00 | 0.00 | 52 | 1006.4 |
| 20260902020913 | 65 | 295 | 6.1 | 13.0 | 0.00 | 0.00 | 0.00 | 51 | 1006.4 |
| 20260902020409 | 66 | 260 | 6.1 | 13.0 | 0.00 | 0.00 | 0.00 | 51 | 1006.4 |
| 20260902015900 | 66 | 269 | 6.1 | 14.8 | 0.00 | 0.00 | 0.00 | 50 | 1006.4 |
| 20260902015355 | 66 | 261 | 5.2 | 14.8 | 0.00 | 0.00 | 0.00 | 50 | 1006.4 |
| 20260902014848 | 66 | 333 | 6.1 | 13.0 | 0.00 | 0.00 | 0.00 | 51 | 1006.2 |
| 20260902014343 | 66 | 269 | 7.0 | 13.9 | 0.00 | 0.00 | 0.00 | 51 | 1006.4 |
| 20260902013838 | 66 | 269 | 8.7 | 15.6 | 0.00 | 0.00 | 0.00 | 51 | 1006.4 |
| 20260902013331 | 67 | 275 | 7.8 | 18.2 | 0.00 | 0.00 | 0.00 | 50 | 1006.2 |
| 20260902012825 | 67 | 243 | 6.1 | 15.6 | 0.00 | 0.00 | 0.00 | 50 | 1006.1 |
| 20260902012319 | 67 | 298 | 5.2 | 14.8 | 0.00 | 0.00 | 0.00 | 50 | 1006.0 |
| 20260902012044 | 67 | 234 | 6.1 | 12.2 | 0.00 | 0.00 | 0.00 | 51 | 1005.9 |
| 20260902011308 | 67 | 306 | 6.1 | 12.2 | 0.00 | 0.00 | 0.00 | 51 | 1005.9 |
| 20260902010802 | 67 | 280 | 6.1 | 16.5 | 0.00 | 0.00 | 0.00 | 51 | 1005.8 |
| 20260902010531 | 67 | 302 | 6.1 | 16.5 | 0.00 | 0.00 | 0.00 | 50 | 1005.7 |
| 20260902005749 | 68 | 309 | 7.8 | 20.0 | 0.00 | 0.00 | 0.00 | 49 | 1005.7 |
| 20260902005244 | 68 | 278 | 9.6 | 20.0 | 0.00 | 0.00 | 0.00 | 47 | 1005.5 |
| 20260902004741 | 68 | 313 | 10.4 | 19.1 | 0.00 | 0.00 | 0.00 | 47 | 1005.7 |
| 20260902004243 | 68 | 300 | 10.4 | 19.1 | 0.00 | 0.00 | 0.00 | 46 | 1005.7 |
| 20260902003741 | 69 | 295 | 8.7 | 19.1 | 0.00 | 0.00 | 0.00 | 45 | 1005.7 |
| 20260902003242 | 69 | 277 | 8.7 | 17.4 | 0.00 | 0.00 | 0.00 | 44 | 1005.7 |
| 20260902002742 | 69 | 332 | 8.7 | 14.8 | 0.00 | 0.00 | 0.00 | 44 | 1005.7 |
| 20260902002242 | 70 | 322 | 7.8 | 16.5 | 0.00 | 0.00 | 0.00 | 43 | 1005.6 |
| 20260902001747 | 70 | 284 | 9.6 | 18.2 | 0.00 | 0.00 | 0.00 | 42 | 1005.5 |
| 20260902001241 | 71 | 248 | 10.4 | 18.2 | 0.00 | 0.00 | 0.00 | 41 | 1005.5 |
| 20260902000741 | 71 | 215 | 9.6 | 18.2 | 0.00 | 0.00 | 0.00 | 41 | 1005.4 |
| 20260902000242 | 71 | 232 | 9.6 | 16.5 | 0.00 | 0.00 | 0.00 | 40 | 1005.4 |
| 20260901235741 | 71 | 315 | 8.7 | 16.5 | 0.00 | 0.00 | 0.00 | 40 | 1005.4 |
| 20260901235242 | 71 | 275 | 9.6 | 19.1 | 0.00 | 0.00 | 0.00 | 39 | 1005.5 |
| 20260901234741 | 72 | 275 | 8.7 | 19.1 | 0.00 | 0.00 | 0.00 | 39 | 1005.5 |
| 20260901234241 | 73 | 253 | 7.8 | 16.5 | 0.00 | 0.00 | 0.00 | 37 | 1005.5 |
| 20260901233741 | 73 | 302 | 8.7 | 16.5 | 0.00 | 0.00 | 0.00 | 36 | 1005.5 |
| 20260901233240 | 75 | 250 | 7.8 | 14.8 | 0.00 | 0.00 | 0.00 | 35 | 1005.5 |
| 20260901232741 | 75 | 343 | 8.7 | 14.8 | 0.00 | 0.00 | 0.00 | 34 | 1005.5 |
| 20260901232235 | 75 | 301 | 9.6 | 19.1 | 0.00 | 0.00 | 0.00 | 34 | 1005.6 |
| 20260901231729 | 75 | 306 | 9.6 | 19.1 | 0.00 | 0.00 | 0.00 | 34 | 1005.6 |
| 20260901231223 | 76 | 286 | 9.6 | 16.5 | 0.00 | 0.00 | 0.00 | 34 | 1005.6 |
| 20260901230716 | 75 | 275 | 8.7 | 18.2 | 0.00 | 0.00 | 0.00 | 35 | 1005.6 |
| 20260901230214 | 76 | 307 | 8.7 | 18.2 | 0.00 | 0.00 | 0.00 | 34 | 1005.5 |
| 20260901225712 | 76 | 294 | 9.6 | 16.5 | 0.00 | 0.00 | 0.00 | 35 | 1005.5 |
| 20260901225214 | 75 | 254 | 8.7 | 16.5 | 0.00 | 0.00 | 0.00 | 35 | 1005.6 |
| 20260901224713 | 74 | 295 | 7.8 | 13.9 | 0.00 | 0.00 | 0.00 | 35 | 1005.7 |
| 20260901224213 | 74 | 251 | 7.8 | 13.9 | 0.00 | 0.00 | 0.00 | 35 | 1005.6 |
| 20260901223714 | 75 | 319 | 7.8 | 13.9 | 0.00 | 0.00 | 0.00 | 34 | 1005.6 |
| 20260901223458 | 75 | 295 | 7.8 | 13.9 | 0.00 | 0.00 | 0.00 | 33 | 1005.6 |
| 20260901222712 | 76 | 298 | 7.0 | 13.0 | 0.00 | 0.00 | 0.00 | 33 | 1005.5 |
| 20260901222451 | 76 | 261 | 7.8 | 14.8 | 0.00 | 0.00 | 0.00 | 32 | 1005.5 |
| 20260901221951 | 76 | 306 | 8.7 | 14.8 | 0.00 | 0.00 | 0.00 | 31 | 1005.5 |
| 20260901221458 | 77 | 304 | 7.0 | 13.9 | 0.00 | 0.00 | 0.00 | 30 | 1005.4 |
| 20260901220710 | 78 | 270 | 6.1 | 15.6 | 0.00 | 0.00 | 0.00 | 28 | 1005.4 |
| 20260901220447 | 79 | 311 | 6.1 | 15.6 | 0.00 | 0.00 | 0.00 | 27 | 1005.3 |
| 20260901215708 | 80 | 348 | 7.0 | 13.0 | 0.00 | 0.00 | 0.00 | 26 | 1005.3 |
| 20260901215210 | 80 | 306 | 7.8 | 13.0 | 0.00 | 0.00 | 0.00 | 26 | 1005.3 |
| 20260901214709 | 80 | 294 | 7.0 | 13.0 | 0.00 | 0.00 | 0.00 | 26 | 1005.2 |
| 20260901214218 | 80 | 288 | 5.2 | 12.2 | 0.00 | 0.00 | 0.00 | 26 | 1005.2 |
| 20260901213717 | 81 | 296 | 5.2 | 11.3 | 0.00 | 0.00 | 0.00 | 25 | 1005.3 |
| 20260901213220 | 82 | 344 | 5.2 | 11.3 | 0.00 | 0.00 | 0.00 | 24 | 1005.4 |
| 20260901212719 | 82 | 342 | 4.3 | 10.4 | 0.00 | 0.00 | 0.00 | 25 | 1005.4 |
| 20260901212211 | 82 | 321 | 4.3 | 10.4 | 0.00 | 0.00 | 0.00 | 25 | 1005.4 |
| 20260901211705 | 81 | 325 | 3.5 | 9.6 | 0.00 | 0.00 | 0.00 | 25 | 1005.5 |
| 20260901211158 | 80 | 355 | 4.3 | 9.6 | 0.00 | 0.00 | 0.00 | 26 | 1005.5 |
| 20260901210927 | 81 | 355 | 5.2 | 11.3 | 0.00 | 0.00 | 0.00 | 26 | 1005.6 |
| 20260901210148 | 80 | 329 | 3.5 | 11.3 | 0.00 | 0.00 | 0.00 | 26 | 1005.5 |
| 20260901205642 | 80 | 5 | 2.6 | 7.8 | 0.00 | 0.00 | 0.00 | 27 | 1005.7 |
| 20260901205136 | 80 | 0 | 3.5 | 11.3 | 0.00 | 0.00 | 0.00 | 27 | 1005.8 |
| 20260901204629 | 80 | 265 | 3.5 | 11.3 | 0.00 | 0.00 | 0.00 | 27 | 1005.8 |
| 20260901204135 | 80 | 340 | 3.5 | 10.4 | 0.00 | 0.00 | 0.00 | 27 | 1005.9 |
| 20260901204130 | 80 | 355 | 3.5 | 10.4 | 0.00 | 0.00 | 0.00 | 26 | 1005.8 |
| 20260901203343 | 80 | 355 | 3.5 | 9.6 | 0.00 | 0.00 | 0.00 | 27 | 1005.9 |
| 20260901202604 | 80 | 340 | 4.3 | 13.0 | 0.00 | 0.00 | 0.00 | 27 | 1006.0 |
| 20260901202059 | 80 | 313 | 3.5 | 13.0 | 0.00 | 0.00 | 0.00 | 27 | 1006.0 |
| 20260901201553 | 80 | 275 | 2.6 | 8.7 | 0.00 | 0.00 | 0.00 | 27 | 1006.0 |
| 20260901201046 | 79 | 338 | 2.6 | 7.8 | 0.00 | 0.00 | 0.00 | 29 | 1006.0 |
| 20260901200542 | 78 | 350 | 2.6 | 6.1 | 0.00 | 0.00 | 0.00 | 32 | 1006.1 |
| 20260901200035 | 78 | 242 | 1.7 | 6.1 | 0.00 | 0.00 | 0.00 | 32 | 1006.1 |
| 20260901195531 | 78 | 349 | 1.7 | 4.3 | 0.00 | 0.00 | 0.00 | 33 | 1006.2 |
| 20260901195020 | 78 | 59 | 1.7 | 4.3 | 0.00 | 0.00 | 0.00 | 32 | 1006.2 |
| 20260901194517 | 78 | 73 | 2.6 | 7.0 | 0.00 | 0.00 | 0.00 | 33 | 1006.4 |
| 20260901194016 | 78 | 343 | 2.6 | 7.0 | 0.00 | 0.00 | 0.00 | 33 | 1006.5 |
| 20260901193506 | 78 | 348 | 1.7 | 5.2 | 0.00 | 0.00 | 0.00 | 33 | 1006.6 |
| 20260901192959 | 77 | 32 | 1.7 | 5.2 | 0.00 | 0.00 | 0.00 | 34 | 1006.7 |
| 20260901192453 | 77 | 202 | 1.7 | 5.2 | 0.00 | 0.00 | 0.00 | 33 | 1006.8 |
| 20260901191947 | 77 | 302 | 2.6 | 7.8 | 0.00 | 0.00 | 0.00 | 34 | 1006.8 |
| 20260901191440 | 77 | 338 | 2.6 | 7.8 | 0.00 | 0.00 | 0.00 | 33 | 1006.9 |
| 20260901190937 | 77 | 355 | 1.7 | 7.8 | 0.00 | 0.00 | 0.00 | 34 | 1007.0 |
| 20260901190429 | 77 | 19 | 0.9 | 6.1 | 0.00 | 0.00 | 0.00 | 33 | 1007.0 |
| 20260901185926 | 76 | 43 | 0.9 | 3.5 | 0.00 | 0.00 | 0.00 | 33 | 1007.1 |
| 20260901185419 | 76 | 260 | 0.9 | 2.6 | 0.00 | 0.00 | 0.00 | 33 | 1007.2 |
| 20260901184912 | 76 | 270 | 0.9 | 3.5 | 0.00 | 0.00 | 0.00 | 34 | 1007.2 |
| 20260901184404 | 75 | 294 | 1.7 | 3.5 | 0.00 | 0.00 | 0.00 | 35 | 1007.3 |
| 20260901183901 | 75 | 13 | 1.7 | 3.5 | 0.00 | 0.00 | 0.00 | 36 | 1007.3 |
| 20260901183356 | 74 | 30 | 1.7 | 6.1 | 0.00 | 0.00 | 0.00 | 37 | 1007.2 |
| 20260901182847 | 74 | 323 | 1.7 | 6.1 | 0.00 | 0.00 | 0.00 | 36 | 1007.4 |
| 20260901182341 | 74 | 317 | 1.7 | 5.2 | 0.00 | 0.00 | 0.00 | 37 | 1007.4 |
| 20260901182110 | 74 | 62 | 2.6 | 5.2 | 0.00 | 0.00 | 0.00 | 37 | 1007.3 |
| 20260901181330 | 74 | 34 | 0.9 | 5.2 | 0.00 | 0.00 | 0.00 | 38 | 1007.3 |
| 20260901181101 | 74 | 18 | 0.9 | 4.3 | 0.00 | 0.00 | 0.00 | 38 | 1007.4 |
| 20260901180326 | 73 | 355 | 0.9 | 4.3 | 0.00 | 0.00 | 0.00 | 39 | 1007.4 |
| 20260901175827 | 73 | 349 | 0.9 | 4.3 | 0.00 | 0.00 | 0.00 | 39 | 1007.3 |
| 20260901175326 | 72 | 269 | 0.9 | 2.6 | 0.00 | 0.00 | 0.00 | 40 | 1007.4 |
| 20260901174825 | 72 | 300 | 1.7 | 4.3 | 0.00 | 0.00 | 0.00 | 40 | 1007.5 |
| 20260901174554 | 72 | 301 | 1.7 | 4.3 | 0.00 | 0.00 | 0.00 | 40 | 1007.5 |
| 20260901173822 | 72 | 27 | 1.7 | 3.5 | 0.00 | 0.00 | 0.00 | 41 | 1007.5 |
| 20260901173324 | 71 | 355 | 1.7 | 7.8 | 0.00 | 0.00 | 0.00 | 41 | 1007.5 |
| 20260901172826 | 71 | 350 | 0.9 | 7.8 | 0.00 | 0.00 | 0.00 | 41 | 1007.4 |
| 20260901172329 | 70 | 293 | 0.9 | 5.2 | 0.00 | 0.00 | 0.00 | 42 | 1007.4 |
| 20260901171832 | 70 | 275 | 0.9 | 5.2 | 0.00 | 0.00 | 0.00 | 42 | 1007.4 |
| 20260901171322 | 70 | 277 | 0.9 | 3.5 | 0.00 | 0.00 | 0.00 | 42 | 1007.4 |
| 20260901170822 | 70 | 135 | 0.9 | 3.5 | 0.00 | 0.00 | 0.00 | 42 | 1007.3 |
| 20260901170322 | 70 | 111 | 0.9 | 2.6 | 0.00 | 0.00 | 0.00 | 42 | 1007.3 |
| 20260901165822 | 69 | 112 | 0.9 | 4.3 | 0.00 | 0.00 | 0.00 | 43 | 1007.3 |
| 20260901165602 | 68 | 124 | 0.9 | 4.3 | 0.00 | 0.00 | 0.00 | 43 | 1007.3 |
| 20260901164819 | 68 | 156 | 0.9 | 4.3 | 0.00 | 0.00 | 0.00 | 44 | 1007.3 |
| 20260901164318 | 67 | 140 | 0.9 | 5.2 | 0.00 | 0.00 | 0.00 | 44 | 1007.4 |
| 20260901163818 | 67 | 126 | 0.9 | 5.2 | 0.00 | 0.00 | 0.00 | 44 | 1007.5 |
| 20260901163318 | 66 | 130 | 0.9 | 5.2 | 0.00 | 0.00 | 0.00 | 45 | 1007.4 |
| 20260901162817 | 66 | 148 | 0.9 | 5.2 | 0.00 | 0.00 | 0.00 | 46 | 1007.4 |
| 20260901162320 | 65 | 140 | 0.9 | 5.2 | 0.00 | 0.00 | 0.00 | 46 | 1007.4 |
| 20260901161818 | 65 | 119 | 0.9 | 5.2 | 0.00 | 0.00 | 0.00 | 47 | 1007.4 |
| 20260901161318 | 64 | 123 | 0.9 | 5.2 | 0.00 | 0.00 | 0.00 | 47 | 1007.5 |
| 20260901161058 | 63 | 112 | 0.9 | 5.2 | 0.00 | 0.00 | 0.00 | 49 | 1007.5 |
| 20260901160317 | 62 | 142 | 0.9 | 2.6 | 0.00 | 0.00 | 0.00 | 50 | 1007.7 |
| 20260901155815 | 62 | 143 | 0.9 | 3.5 | 0.00 | 0.00 | 0.00 | 50 | 1007.7 |
| 20260901155317 | 61 | 142 | 0.9 | 5.2 | 0.00 | 0.00 | 0.00 | 51 | 1007.8 |
| 20260901154813 | 60 | 140 | 0.9 | 5.2 | 0.00 | 0.00 | 0.00 | 51 | 1007.8 |
| 20260901154315 | 60 | 144 | 0.9 | 4.3 | 0.00 | 0.00 | 0.00 | 52 | 1007.8 |
| 20260901153817 | 59 | 142 | 1.7 | 3.5 | 0.00 | 0.00 | 0.00 | 52 | 1007.8 |
| 20260901153314 | 58 | 138 | 1.7 | 5.2 | 0.00 | 0.00 | 0.00 | 53 | 1007.9 |
| 20260901152814 | 58 | 148 | 0.9 | 5.2 | 0.00 | 0.00 | 0.00 | 54 | 1007.9 |
| 20260901152313 | 57 | 150 | 0.9 | 5.2 | 0.00 | 0.00 | 0.00 | 55 | 1008.0 |
| 20260901151816 | 57 | 162 | 1.7 | 5.2 | 0.00 | 0.00 | 0.00 | 56 | 1008.0 |
| 20260901151315 | 56 | 150 | 1.7 | 6.1 | 0.00 | 0.00 | 0.00 | 56 | 1008.0 |
| 20260901150810 | 56 | 150 | 2.6 | 7.0 | 0.00 | 0.00 | 0.00 | 56 | 1008.0 |
| 20260901150302 | 56 | 153 | 2.6 | 7.0 | 0.00 | 0.00 | 0.00 | 57 | 1007.9 |
| 20260901145758 | 55 | 144 | 3.5 | 7.0 | 0.00 | 0.00 | 0.00 | 57 | 1007.9 |
| 20260901145251 | 55 | 145 | 3.5 | 7.0 | 0.00 | 0.00 | 0.00 | 58 | 1007.8 |
| 20260901145010 | 54 | 144 | 3.5 | 6.1 | 0.00 | 0.00 | 0.00 | 59 | 1007.7 |
| 20260901144239 | 53 | 144 | 2.6 | 7.0 | 0.00 | 0.00 | 0.00 | 60 | 1007.4 |
| 20260901143732 | 53 | 155 | 2.6 | 7.0 | 0.00 | 0.00 | 0.00 | 61 | 1007.4 |
| 20260901143226 | 53 | 141 | 3.5 | 6.1 | 0.00 | 0.00 | 0.00 | 61 | 1007.3 |
| 20260901142721 | 52 | 137 | 3.5 | 6.1 | 0.00 | 0.00 | 0.00 | 62 | 1007.3 |
| 20260901142215 | 52 | 138 | 2.6 | 5.2 | 0.00 | 0.00 | 0.00 | 62 | 1007.3 |
| 20260901141709 | 52 | 143 | 2.6 | 5.2 | 0.00 | 0.00 | 0.00 | 62 | 1007.3 |
| 20260901141202 | 52 | 140 | 0.9 | 3.5 | 0.00 | 0.00 | 0.00 | 62 | 1007.2 |
| 20260901140659 | 52 | 144 | 0.0 | 1.7 | 0.00 | 0.00 | 0.00 | 62 | 1007.1 |
| 20260901140151 | 53 | 144 | 0.9 | 3.5 | 0.00 | 0.00 | 0.00 | 62 | 1007.0 |
| 20260901135644 | 53 | 144 | 1.7 | 3.5 | 0.00 | 0.00 | 0.00 | 62 | 1007.1 |
| 20260901135145 | 53 | 148 | 1.7 | 3.5 | 0.00 | 0.00 | 0.00 | 62 | 1007.0 |
| 20260901134632 | 53 | 144 | 1.7 | 4.3 | 0.00 | 0.00 | 0.00 | 61 | 1006.9 |
| 20260901134129 | 53 | 145 | 1.7 | 4.3 | 0.00 | 0.00 | 0.00 | 61 | 1007.0 |
| 20260901133627 | 53 | 145 | 0.9 | 3.5 | 0.00 | 0.00 | 0.00 | 61 | 1006.9 |
| 20260901133349 | 53 | 146 | 0.9 | 2.6 | 0.00 | 0.00 | 0.00 | 61 | 1006.9 |